Terminal Aerodrome Forecast
Issued by NWS La Crosse, WI

Home | Current Version | Previous Version | Text Only | Print | Product List | Glossary On
Versions: 1 2 3 4 5 6 7 8 9 10 11 12 13 14 15 16 17 18 19 20 21 22 23 24 25 26 27 28 29 30 31 32 33 34
000
FTUS43 KARX 210520
TAFLSE
TAF
KLSE 210520Z 2106/2206 18005KT P6SM SCT100
     FM211100 15004KT P6SM VCTS SCT050CB BKN080
     FM211500 18006KT P6SM SCT050 BKN070
     FM220100 20004KT P6SM VCTS OVC040CB=

USA.gov is the U.S. government's official web portal to all federal, state and local government web resources and services.